Weather History for LEJR - April, 2013

Change the Weather History Date:

Tuesday, April 2, 2013

  Actual Average Record
Temperature  
Mean Temperature 60 °F -  
Max Temperature 69 °F 70 °F 79 °F (2015)
Min Temperature 50 °F 48 °F 41 °F (2009)
Degree Days  
Heating Degree Days 6    
Growing Degree Days 10 (Base 50)    
Moisture  
Dew Point 52 °F    
Average Humidity 77    
Maximum Humidity 100    
Minimum Humidity 38    
Precipitation  
Precipitation 0.00 in 0.07 in - ()
Sea Level Pressure  
Sea Level Pressure 29.93 in    
Wind  
Wind Speed 4 mph ()    
Max Wind Speed 10 mph    
Max Gust Speed 15 mph    
Visibility 7.1 miles    
Events      
Averages and records for this station are not official NWS values.
T = Trace of Precipitation, MM = Missing Value Source: Averaged Metar Reports

Daily Weather History Graph

Daily Weather History Graph

Search for Another Location

Airport or City:

Trip Planner

Search our weather history database for the weather conditions in past years. The results will help you decide how hot, cold, wet, or windy it might be!

Date:

Astronomy

Apr. 02, 2013 Rise Set
Actual Time 8:08 AM CEST 8:47 PM CEST
Civil Twilight 7:42 AM CEST 9:13 PM CEST
Nautical Twilight 7:11 AM CEST 9:44 PM CEST
Astronomical Twilight 6:40 AM CEST 10:16 PM CEST
Moon 2:33 AM CEST (4/2) 12:50 PM CEST (4/2)
Length of Visible Light 13h 31m
Length of Day
12h 38m
Waning Gibbous, 59% of the Moon is Illuminated
Apr 2
Waning Gibbous
Apr 3
Last Quarter
Apr 10
New
Apr 18
First Quarter
Apr 25
Full

Hourly Weather History & Observations

Time (CEST) Temp. Dew Point Humidity Pressure Visibility Wind Dir Wind Speed Gust Speed Precip Events Conditions
12:00 AM 57.2 °F 53.6 °F 88% 29.92 in 6.2 mi WSW 9.2 mph - N/A   Partly Cloudy
2:00 AM 56 °F 54 °F 89% 29.96 in 12 mi WSW 8.1 mph - -   Scattered Clouds
5:00 AM 51.8 °F 50.0 °F 94% 29.95 in - Variable 1.2 mph - N/A   Clear
5:30 AM 51.8 °F 50.0 °F 94% 29.95 in - Calm Calm - N/A   Clear
6:00 AM 51.8 °F 50.0 °F 94% 29.95 in - Variable 1.2 mph - N/A   Clear
6:30 AM 51.8 °F 50.0 °F 94% 29.95 in - Variable 1.2 mph - N/A   Clear
7:00 AM 50.0 °F 48.2 °F 94% 29.95 in - Variable 2.3 mph - N/A   Clear
7:30 AM 50.0 °F 50.0 °F 100% 29.95 in 6.2 mi Calm Calm - N/A   Partly Cloudy
8:00 AM 50 °F 50 °F 99% 29.96 in 9 mi Calm Calm - -   Scattered Clouds
8:00 AM 50.0 °F 48.2 °F 94% 29.95 in 6.2 mi Calm Calm - N/A   Partly Cloudy
8:30 AM 50.0 °F 50.0 °F 100% 29.95 in 6.2 mi Calm Calm - N/A   Scattered Clouds
9:00 AM 51.8 °F 51.8 °F 100% 29.98 in 6.2 mi Variable 1.2 mph 15.0 mph N/A   Scattered Clouds
9:30 AM 53.6 °F 51.8 °F 94% 29.98 in 6.2 mi Calm Calm - N/A   Scattered Clouds
10:00 AM 53.6 °F 53.6 °F 100% 29.98 in 6.2 mi Calm Calm - N/A   Partly Cloudy
10:30 AM 59.0 °F 55.4 °F 88% 29.98 in 6.2 mi Calm Calm - N/A   Partly Cloudy
11:00 AM 60.8 °F 55.4 °F 82% 29.98 in 6.2 mi Calm Calm - N/A   Scattered Clouds
11:30 AM 62.6 °F 53.6 °F 72% 29.98 in 6.2 mi WSW 4.6 mph - N/A   Scattered Clouds
12:00 PM 62.6 °F 51.8 °F 68% 29.98 in 6.2 mi WSW 6.9 mph - N/A   Scattered Clouds
12:30 PM 64.4 °F 51.8 °F 64% 29.98 in 6.2 mi WSW 9.2 mph - N/A   Scattered Clouds
1:00 PM 62.6 °F 50.0 °F 63% 29.98 in 6.2 mi WSW 9.2 mph - N/A   Scattered Clouds
1:30 PM 66.2 °F 50.0 °F 56% 29.98 in 6.2 mi WSW 9.2 mph - N/A   Scattered Clouds
2:00 PM 69 °F 49 °F 38% 29.97 in 12 mi SW 10.4 mph - -   Partly Cloudy
2:00 PM 66.2 °F 50.0 °F 56% 29.98 in 6.2 mi WSW 9.2 mph - N/A   Scattered Clouds
2:30 PM 64.4 °F 50.0 °F 59% 29.95 in 6.2 mi SW 9.2 mph - N/A   Scattered Clouds
3:00 PM 64.4 °F 51.8 °F 64% 29.95 in 6.2 mi WSW 8.1 mph - N/A   Scattered Clouds
3:30 PM 64.4 °F 51.8 °F 64% 29.95 in 6.2 mi West 9.2 mph - N/A   Scattered Clouds
4:00 PM 66.2 °F 51.8 °F 60% 29.95 in 6.2 mi WSW 10.4 mph - N/A   Scattered Clouds
4:30 PM 66.2 °F 48.2 °F 52% 29.95 in 6.2 mi WSW 10.4 mph - N/A   Scattered Clouds
5:00 PM 66.2 °F 50.0 °F 56% 29.92 in 6.2 mi West 9.2 mph - N/A   Scattered Clouds
5:30 PM 66.2 °F 51.8 °F 60% 29.92 in 6.2 mi WSW 8.1 mph - N/A   Partly Cloudy
6:00 PM 66.2 °F 50.0 °F 56% 29.89 in 6.2 mi WSW 9.2 mph - N/A   Partly Cloudy
6:30 PM 64.4 °F 50.0 °F 59% 29.89 in 6.2 mi WSW 10.4 mph - N/A   Partly Cloudy
7:00 PM 64.4 °F 51.8 °F 64% 29.89 in 6.2 mi WSW 6.9 mph - N/A   Partly Cloudy
7:30 PM 62.6 °F 50.0 °F 63% 29.89 in 6.2 mi WSW 6.9 mph - N/A   Partly Cloudy
8:00 PM 63 °F 53 °F 63% 29.88 in 19 mi South 3.5 mph - -   Clear
8:00 PM 60.8 °F 53.6 °F 77% 29.86 in - Variable 2.3 mph - N/A   Clear
8:30 PM 59.0 °F 53.6 °F 82% 29.86 in - South 3.5 mph - N/A   Clear
9:00 PM 59.0 °F 53.6 °F 82% 29.86 in - Variable 2.3 mph - N/A   Clear
9:30 PM 59.0 °F 53.6 °F 82% 29.83 in - Variable 2.3 mph - N/A   Clear
10:00 PM 59.0 °F 53.6 °F 82% 29.83 in - Calm Calm - N/A   Clear
10:30 PM 57.2 °F 55.4 °F 94% 29.83 in - Calm Calm - N/A   Clear
11:00 PM 57.2 °F 55.4 °F 94% 29.83 in - Variable 1.2 mph - N/A   Clear